Location: Zagreb
(45.8000°N, 16.0000°E)
Time: 16:43:49
(UTC+02:00)

Explorer 7 - Pass Details

Date: 19 July 2024
Orbit: 445 x 571 km, 50.3° (Epoch: 14 June)

Event Time Altitude Azimuth Distance (km) Brightness Sun altitude
Exits shadow 00:48:39 10° 92° (E) 1,934 9.5 -23.3°
Drops below altitude 10° 00:48:45 10° 91° (E) 1,961 9.6 -23.3°
Enters shadow 01:51:33 -58° 240° (WSW) 11,361 13.5 -22.5°
Maximum altitude 02:24:33 74° 152° (SSE) 636 6.9 -20.8°
